CKS9150 KNLC-KSAN

Flight info

Callsign CKS9150
Flight time 0h 46m
Altitude 33000
Route PIXEY LAX COMIX2
Aircraft A333/H-SDE3GHIJ2J3J5M1RVWXY/LB2D1

Departure

Time 2026-04-15 05:07
Airport Lemoore Naval Air Station (Reeves Field) Airport (KNLC)

Arrival

Time 2026-04-15 05:54
Airport San Diego International Airport (KSAN)
Time Latitude Longitude Altitude Speed Heading
2026-04-15 04:51 36.32964 -119.95186 242 ft 0 kts 156°
2026-04-15 05:02 36.32963 -119.95186 239 ft 1 kts 156°
2026-04-15 05:03 36.32954 -119.95185 242 ft 2 kts 183°
2026-04-15 05:03 36.32952 -119.95205 233 ft 3 kts 285°
2026-04-15 05:03 36.32984 -119.95267 245 ft 15 kts 305°
2026-04-15 05:03 36.33039 -119.95375 242 ft 11 kts 284°
2026-04-15 05:04 36.33017 -119.95474 242 ft 13 kts 246°
2026-04-15 05:04 36.32978 -119.95584 242 ft 14 kts 246°
2026-04-15 05:04 36.32969 -119.95686 241 ft 12 kts 304°
2026-04-15 05:04 36.33052 -119.95742 241 ft 16 kts 336°
2026-04-15 05:05 36.33155 -119.95798 242 ft 16 kts 336°
2026-04-15 05:05 36.33258 -119.95856 243 ft 17 kts 336°
2026-04-15 05:05 36.33386 -119.95927 243 ft 22 kts 336°
2026-04-15 05:05 36.33524 -119.96002 243 ft 22 kts 336°
2026-04-15 05:06 36.33620 -119.96078 242 ft 10 kts 283°
2026-04-15 05:06 36.33595 -119.96164 242 ft 11 kts 243°
2026-04-15 05:06 36.33533 -119.96188 242 ft 11 kts 161°
2026-04-15 05:06 36.33416 -119.96125 242 ft 40 kts 156°
2026-04-15 05:07 36.32974 -119.95883 241 ft 98 kts 156°
2026-04-15 05:07 36.32195 -119.95456 243 ft 145 kts 156°
2026-04-15 05:07 36.31147 -119.94874 304 ft 179 kts 155°
2026-04-15 05:07 36.30034 -119.94252 951 ft 174 kts 156°
2026-04-15 05:08 36.28917 -119.93643 1474 ft 182 kts 155°
2026-04-15 05:08 36.27731 -119.93000 1926 ft 193 kts 155°
2026-04-15 05:08 36.26452 -119.92269 2154 ft 213 kts 147°
2026-04-15 05:08 36.25376 -119.90924 2353 ft 231 kts 123°
2026-04-15 05:09 36.24517 -119.89147 2550 ft 250 kts 114°
2026-04-15 05:09 36.23795 -119.87106 2937 ft 264 kts 109°
2026-04-15 05:09 36.23155 -119.84952 3668 ft 267 kts 108°
2026-04-15 05:09 36.22539 -119.82770 4469 ft 270 kts 108°
2026-04-15 05:10 36.21909 -119.80557 5246 ft 275 kts 109°
2026-04-15 05:10 36.21252 -119.78320 6058 ft 277 kts 109°
2026-04-15 05:10 36.20571 -119.76077 6884 ft 280 kts 110°
2026-04-15 05:10 36.19869 -119.73811 7655 ft 283 kts 110°
2026-04-15 05:11 36.19151 -119.71523 8446 ft 287 kts 110°
2026-04-15 05:11 36.18419 -119.69205 9244 ft 291 kts 110°
2026-04-15 05:11 36.17685 -119.66890 10031 ft 295 kts 110°
2026-04-15 05:11 36.16920 -119.64475 10468 ft 311 kts 110°
2026-04-15 05:12 36.16105 -119.61900 10728 ft 332 kts 110°
2026-04-15 05:12 36.15239 -119.59166 11034 ft 349 kts 110°
2026-04-15 05:12 36.14338 -119.56324 11558 ft 358 kts 110°
2026-04-15 05:12 36.13419 -119.53429 12196 ft 364 kts 110°
2026-04-15 05:13 36.12487 -119.50498 12836 ft 368 kts 110°
2026-04-15 05:13 36.11542 -119.47535 13460 ft 373 kts 111°
2026-04-15 05:13 36.10383 -119.44639 14079 ft 379 kts 121°
2026-04-15 05:13 36.08804 -119.42018 14653 ft 383 kts 133°
2026-04-15 05:14 36.06782 -119.39868 15222 ft 386 kts 147°
2026-04-15 05:14 36.04396 -119.38316 15788 ft 389 kts 158°
2026-04-15 05:14 36.01860 -119.37094 16359 ft 392 kts 160°
2026-04-15 05:14 35.99317 -119.35938 16894 ft 396 kts 161°
2026-04-15 05:15 35.96720 -119.34760 17437 ft 400 kts 160°
2026-04-15 05:15 35.94099 -119.33563 17978 ft 404 kts 160°
2026-04-15 05:15 35.91454 -119.32350 18498 ft 407 kts 160°
2026-04-15 05:15 35.88787 -119.31123 18965 ft 411 kts 160°
2026-04-15 05:16 35.86100 -119.29886 19453 ft 413 kts 160°
2026-04-15 05:16 35.83401 -119.28643 19949 ft 415 kts 160°
2026-04-15 05:16 35.80679 -119.27390 20426 ft 418 kts 160°
2026-04-15 05:16 35.77947 -119.26133 20902 ft 420 kts 160°
2026-04-15 05:17 35.75196 -119.24868 21371 ft 423 kts 160°
2026-04-15 05:17 35.72430 -119.23596 21851 ft 425 kts 160°
2026-04-15 05:17 35.69648 -119.22319 22304 ft 428 kts 159°
2026-04-15 05:17 35.66849 -119.21034 22743 ft 430 kts 159°
2026-04-15 05:18 35.64038 -119.19745 23180 ft 433 kts 159°
2026-04-15 05:18 35.61208 -119.18448 23613 ft 435 kts 159°
2026-04-15 05:18 35.58398 -119.17161 23947 ft 439 kts 159°
2026-04-15 05:18 35.55523 -119.15846 24262 ft 442 kts 159°
2026-04-15 05:19 35.52636 -119.14526 24595 ft 444 kts 159°
2026-04-15 05:19 35.49730 -119.13198 24933 ft 447 kts 159°
2026-04-15 05:19 35.46806 -119.11864 25260 ft 449 kts 159°
2026-04-15 05:19 35.43867 -119.10523 25590 ft 452 kts 159°
2026-04-15 05:20 35.40907 -119.09174 25917 ft 454 kts 159°
2026-04-15 05:20 35.37931 -119.07819 26223 ft 457 kts 159°
2026-04-15 05:20 35.34940 -119.06458 26539 ft 460 kts 159°
2026-04-15 05:20 35.31933 -119.05090 26882 ft 462 kts 159°
2026-04-15 05:21 35.28914 -119.03719 27205 ft 464 kts 159°
2026-04-15 05:21 35.25870 -119.02337 27509 ft 467 kts 159°
2026-04-15 05:21 35.22817 -119.00952 27814 ft 469 kts 159°
2026-04-15 05:21 35.19745 -118.99559 28106 ft 472 kts 159°
2026-04-15 05:22 35.16694 -118.98178 28356 ft 475 kts 159°
2026-04-15 05:22 35.13581 -118.96769 28657 ft 477 kts 159°
2026-04-15 05:22 35.10461 -118.95358 28974 ft 479 kts 159°
2026-04-15 05:22 35.07325 -118.93942 29288 ft 481 kts 159°
2026-04-15 05:23 35.04179 -118.92522 29577 ft 483 kts 158°
2026-04-15 05:23 35.01018 -118.91096 29865 ft 486 kts 158°
2026-04-15 05:23 34.97834 -118.89661 30154 ft 488 kts 158°
2026-04-15 05:23 34.94637 -118.88221 30400 ft 490 kts 158°
2026-04-15 05:24 34.91434 -118.86780 30651 ft 492 kts 158°
2026-04-15 05:24 34.88216 -118.85334 30908 ft 493 kts 159°
2026-04-15 05:24 34.85023 -118.83900 31140 ft 495 kts 159°
2026-04-15 05:24 34.81785 -118.82447 31369 ft 497 kts 159°
2026-04-15 05:25 34.78537 -118.80991 31610 ft 498 kts 159°
2026-04-15 05:25 34.75281 -118.79532 31860 ft 499 kts 159°
2026-04-15 05:25 34.72019 -118.78072 32204 ft 498 kts 159°
2026-04-15 05:25 34.68765 -118.76616 32548 ft 497 kts 159°
2026-04-15 05:26 34.65526 -118.75169 32886 ft 495 kts 159°
2026-04-15 05:26 34.62289 -118.73724 33088 ft 492 kts 159°
2026-04-15 05:26 34.59116 -118.72309 33095 ft 478 kts 159°
2026-04-15 05:26 34.56034 -118.70936 33102 ft 467 kts 159°
2026-04-15 05:27 34.49991 -118.68244 33093 ft 465 kts 159°
2026-04-15 05:27 34.43902 -118.65537 33102 ft 466 kts 159°
2026-04-15 05:28 34.37811 -118.62832 33095 ft 466 kts 159°
2026-04-15 05:28 34.31734 -118.60139 33101 ft 464 kts 159°
2026-04-15 05:29 34.25661 -118.57451 33111 ft 464 kts 159°
2026-04-15 05:29 34.19631 -118.54787 33110 ft 464 kts 159°
2026-04-15 05:30 34.13565 -118.52111 33110 ft 464 kts 160°
2026-04-15 05:30 34.07494 -118.49437 33109 ft 464 kts 160°
2026-04-15 05:31 34.01429 -118.46770 33111 ft 464 kts 160°
2026-04-15 05:31 33.95416 -118.43938 33107 ft 464 kts 153°
2026-04-15 05:32 33.92676 -118.41903 33108 ft 463 kts 141°
2026-04-15 05:32 33.90290 -118.39323 33108 ft 461 kts 133°
2026-04-15 05:32 33.88065 -118.36505 32591 ft 466 kts 131°
2026-04-15 05:32 33.85859 -118.33622 31810 ft 470 kts 131°
2026-04-15 05:33 33.83624 -118.30701 31001 ft 476 kts 131°
2026-04-15 05:33 33.81383 -118.27786 30517 ft 473 kts 131°
2026-04-15 05:33 33.79147 -118.24888 29917 ft 472 kts 131°
2026-04-15 05:33 33.76926 -118.21999 29346 ft 470 kts 131°
2026-04-15 05:34 33.74726 -118.19108 28757 ft 467 kts 131°
2026-04-15 05:34 33.72575 -118.16277 28219 ft 464 kts 131°
2026-04-15 05:34 33.70401 -118.13418 27648 ft 462 kts 131°
2026-04-15 05:34 33.68235 -118.10574 27124 ft 460 kts 131°
2026-04-15 05:35 33.66079 -118.07746 26560 ft 458 kts 131°
2026-04-15 05:35 33.63931 -118.04931 26008 ft 457 kts 131°
2026-04-15 05:35 33.61788 -118.02125 25441 ft 455 kts 132°
2026-04-15 05:35 33.59651 -117.99330 24870 ft 454 kts 132°
2026-04-15 05:36 33.57518 -117.96542 24301 ft 453 kts 132°
2026-04-15 05:36 33.55385 -117.93771 23735 ft 448 kts 133°
2026-04-15 05:36 33.53201 -117.91144 23100 ft 441 kts 135°
2026-04-15 05:36 33.51047 -117.88645 22552 ft 433 kts 136°
2026-04-15 05:37 33.48894 -117.86158 22015 ft 425 kts 136°
2026-04-15 05:37 33.46787 -117.83724 21479 ft 418 kts 136°
2026-04-15 05:37 33.44710 -117.81325 20951 ft 412 kts 136°
2026-04-15 05:37 33.42618 -117.79019 20430 ft 406 kts 138°
2026-04-15 05:38 33.40530 -117.76783 19915 ft 400 kts 138°
2026-04-15 05:38 33.38456 -117.74572 19416 ft 396 kts 138°
2026-04-15 05:38 33.36406 -117.72387 18908 ft 395 kts 138°
2026-04-15 05:38 33.34352 -117.70198 18405 ft 396 kts 138°
2026-04-15 05:39 33.32296 -117.68005 17847 ft 396 kts 138°
2026-04-15 05:39 33.30246 -117.65820 17338 ft 394 kts 138°
2026-04-15 05:39 33.28209 -117.63650 16811 ft 391 kts 138°
2026-04-15 05:39 33.26174 -117.61483 16193 ft 392 kts 138°
2026-04-15 05:40 33.24135 -117.59322 15654 ft 390 kts 138°
2026-04-15 05:40 33.22108 -117.57186 15151 ft 387 kts 138°
2026-04-15 05:40 33.20119 -117.55091 14651 ft 385 kts 138°
2026-04-15 05:40 33.18116 -117.52985 14148 ft 383 kts 138°
2026-04-15 05:41 33.16125 -117.50891 13611 ft 380 kts 138°
2026-04-15 05:41 33.14137 -117.48829 13054 ft 378 kts 140°
2026-04-15 05:41 33.12042 -117.46954 12575 ft 374 kts 144°
2026-04-15 05:41 33.09927 -117.45182 12098 ft 369 kts 144°
2026-04-15 05:42 33.08505 -117.44001 11764 ft 367 kts 144°
2026-04-15 05:42 33.06444 -117.42291 11282 ft 364 kts 145°
2026-04-15 05:42 33.04391 -117.40582 11034 ft 353 kts 144°
2026-04-15 05:42 33.02422 -117.38933 10947 ft 338 kts 144°
2026-04-15 05:43 33.00536 -117.37352 10823 ft 326 kts 144°
2026-04-15 05:43 32.98703 -117.35816 10662 ft 316 kts 144°
2026-04-15 05:43 32.96936 -117.34335 10541 ft 304 kts 144°
2026-04-15 05:43 32.95240 -117.32914 10405 ft 292 kts 144°
2026-04-15 05:44 32.93610 -117.31550 10275 ft 281 kts 144°
2026-04-15 05:44 32.92026 -117.30225 10026 ft 279 kts 144°
2026-04-15 05:44 32.90428 -117.28892 9623 ft 281 kts 144°
2026-04-15 05:44 32.88828 -117.27561 9306 ft 280 kts 144°
2026-04-15 05:45 32.87230 -117.26233 9004 ft 279 kts 144°
2026-04-15 05:45 32.85638 -117.24910 8692 ft 277 kts 144°
2026-04-15 05:45 32.84061 -117.23600 8364 ft 277 kts 144°
2026-04-15 05:45 32.82493 -117.22280 8082 ft 273 kts 141°
2026-04-15 05:46 32.81213 -117.20629 7716 ft 272 kts 117°
2026-04-15 05:46 32.80539 -117.18554 7417 ft 268 kts 104°
2026-04-15 05:46 32.80060 -117.16433 7177 ft 264 kts 103°
2026-04-15 05:46 32.79616 -117.14360 7042 ft 252 kts 103°
2026-04-15 05:47 32.79204 -117.12451 6934 ft 240 kts 103°
2026-04-15 05:47 32.78784 -117.10521 6626 ft 242 kts 103°
2026-04-15 05:47 32.78360 -117.08595 6369 ft 240 kts 104°
2026-04-15 05:47 32.77928 -117.06677 6088 ft 240 kts 104°
2026-04-15 05:48 32.77475 -117.04763 5782 ft 241 kts 105°
2026-04-15 05:48 32.77015 -117.02862 5570 ft 238 kts 105°
2026-04-15 05:48 32.76558 -117.00981 5342 ft 236 kts 105°
2026-04-15 05:48 32.76100 -116.99115 5198 ft 234 kts 106°
2026-04-15 05:49 32.75444 -116.97369 5161 ft 236 kts 123°
2026-04-15 05:49 32.74266 -116.96026 5077 ft 237 kts 150°
2026-04-15 05:49 32.72711 -116.95441 4905 ft 236 kts 177°
2026-04-15 05:49 32.71106 -116.95735 4631 ft 234 kts 204°
2026-04-15 05:50 32.69787 -116.96817 4359 ft 231 kts 229°
2026-04-15 05:50 32.68990 -116.98444 4099 ft 228 kts 254°
2026-04-15 05:50 32.69178 -117.02059 3778 ft 213 kts 287°
2026-04-15 05:51 32.69587 -117.03686 3689 ft 196 kts 288°
2026-04-15 05:51 32.69967 -117.05161 3572 ft 178 kts 287°
2026-04-15 05:51 32.70326 -117.06536 3257 ft 171 kts 288°
2026-04-15 05:51 32.70660 -117.07852 2948 ft 162 kts 287°
2026-04-15 05:52 32.70953 -117.09135 2553 ft 160 kts 286°
2026-04-15 05:52 32.71268 -117.10404 2112 ft 161 kts 288°
2026-04-15 05:52 32.71606 -117.11682 1664 ft 162 kts 287°
2026-04-15 05:52 32.71901 -117.12951 1244 ft 161 kts 287°
2026-04-15 05:53 32.72206 -117.14216 844 ft 158 kts 287°
2026-04-15 05:53 32.72500 -117.15440 572 ft 149 kts 286°
2026-04-15 05:53 32.72781 -117.16586 319 ft 140 kts 287°
2026-04-15 05:53 32.73039 -117.17660 121 ft 133 kts 287°
2026-04-15 05:54 32.73289 -117.18685 36 ft 118 kts 286°
2026-04-15 05:54 32.73443 -117.19323 28 ft 41 kts 286°
2026-04-15 05:54 32.73424 -117.19486 31 ft 13 kts 227°
2026-04-15 05:54 32.73374 -117.19466 31 ft 8 kts 110°
2026-04-15 05:55 32.73370 -117.19448 30 ft 2 kts 106°
2026-04-15 05:55 32.73363 -117.19423 30 ft 5 kts 106°
2026-04-15 05:55 32.73362 -117.19417 30 ft 0 kts 106°
2026-04-15 05:56 32.73353 -117.19381 29 ft 9 kts 106°
2026-04-15 05:56 32.73331 -117.19294 27 ft 12 kts 105°
2026-04-15 05:56 32.73319 -117.19194 27 ft 11 kts 71°
2026-04-15 05:57 32.73383 -117.19133 27 ft 13 kts 33°
2026-04-15 05:57 32.73457 -117.19066 26 ft 14 kts 46°
2026-04-15 05:57 32.73468 -117.18956 29 ft 14 kts 104°
2026-04-15 05:57 32.73440 -117.18840 30 ft 15 kts 106°
2026-04-15 05:58 32.73410 -117.18715 35 ft 16 kts 106°
2026-04-15 05:58 32.73379 -117.18588 36 ft 15 kts 106°
2026-04-15 05:58 32.73362 -117.18516 37 ft 7 kts 106°
2026-04-15 05:58 32.73349 -117.18449 37 ft 9 kts 88°
2026-04-15 05:59 32.73401 -117.18397 37 ft 12 kts 18°
2026-04-15 05:59 32.73483 -117.18426 36 ft 15 kts 326°
2026-04-15 05:59 32.73575 -117.18504 35 ft 17 kts 322°
2026-04-15 05:59 32.73670 -117.18586 35 ft 16 kts 324°
2026-04-15 06:00 32.73739 -117.18621 35 ft 9 kts 351°
2026-04-15 06:00 32.73803 -117.18629 35 ft 10 kts 353°
2026-04-15 06:00 32.73813 -117.18630 35 ft 0 kts 353°